Погода в Сосновом Солонце

Россия / Самарская область     53°17′03″N   49°32′04″E
темп.,
°C
ветер,
м/с
пор.,
м/с
влажн.,
%
обл.,
%
осадки,
мм/ч
давл.,
гПа
погр.,
м
10 апреля, сб
сб1001:00+2ссв61197100 0.1 1024304
04:00+2ссв51097100 0.1 1025298
07:00+2с3798100 0.2 1025251
10:00+4св499799 0.2 1024255
13:00+10всв4776100 0.0 1023503
16:00+14вюв3768100 0.0 1022590
19:00+11ссв3483100 0.0 102259
22:00+11всв3884100 0.0 1021105
11 апреля, вс
вс1101:00+11юв51379100 0.0 1021224
04:00+11юв41079100 0.0 1023182
07:00+10юв3784100 0.0 1025121
10:00+13ююв4871100 0.0 1026448
13:00+17ю4657100 0.0 1027685
16:00+18ю2453100 0.0 1028739
19:00+13ссв4677100 0.0 1029107
22:00+12св3381100 0.0 103035
12 апреля, пн
пн1201:00+11в2279100 0.0 103112
04:00+9св1182100 0.0 103211
07:00+9в227978 0.0 103211
10:00+13вюв346313 0.0 1033275
13:00+16вюв44525 0.0 1033687
16:00+19вюв444647 0.0 10321066
19:00+15вюв336133 0.0 103238
22:00+12вюв2270100 0.0 103319
13 апреля, вт
вт1301:00+10в2278100 0.0 103312
04:00+8вюв227691 0.0 103313
07:00+7вюв346979 0.0 103367
10:00+12юв465162 0.0 1033359
13:00+16юв463750 0.0 1032883
16:00+17ююв453522 0.0 10311056
19:00+15ююв33515 0.0 103054
22:00+11юв22625 0.0 103012
14 апреля, ср
ср1401:00+10вюв226863 0.0 103012
04:00+8вюв227125 0.0 103012
07:00+8вюв22698 0.0 103024
10:00+13юв45485 0.0 1029306
13:00+17юв343647 0.0 1028760
16:00+18юв333064 0.0 10261041
19:00+16вюв22435 0.0 102522
22:00+12в22515 0.0 102612